TimeEST,TemperatureF,Dew PointF,Humidity,Sea Level PressureIn,VisibilityMPH,Wind Direction,Wind SpeedMPH,Gust SpeedMPH,PrecipitationIn,Events,Conditions,WindDirDegrees,DateUTC
12:29 AM,28.4,17.6,64,30.19,10.0,West,16.1,29.9,N/A,,Overcast,270,2013-01-04 05:29:00
12:45 AM,26.6,17.6,69,30.19,10.0,West,11.5,18.4,N/A,,Overcast,260,2013-01-04 05:45:00
12:53 AM,27.0,18.0,69,30.25,10.0,West,13.8,21.9,N/A,,Overcast,270,2013-01-04 05:53:00
1:53 AM,27.0,19.0,72,30.24,10.0,West,11.5,25.3,N/A,,Overcast,270,2013-01-04 06:53:00
2:53 AM,27.0,19.9,75,30.25,10.0,WSW,15.0,20.7,N/A,,Overcast,240,2013-01-04 07:53:00
3:53 AM,27.0,19.0,72,30.25,10.0,WSW,11.5,-,N/A,,Overcast,250,2013-01-04 08:53:00
4:53 AM,27.0,19.0,72,30.25,10.0,WSW,11.5,18.4,N/A,,Overcast,250,2013-01-04 09:53:00
5:53 AM,27.0,19.0,72,30.23,10.0,WSW,17.3,24.2,N/A,,Overcast,250,2013-01-04 10:53:00
6:53 AM,28.0,19.9,72,30.24,10.0,WSW,10.4,-,N/A,,Overcast,240,2013-01-04 11:53:00
7:53 AM,28.0,19.9,72,30.24,10.0,WSW,11.5,25.3,N/A,,Overcast,250,2013-01-04 12:53:00
8:53 AM,28.9,19.0,67,30.25,10.0,West,17.3,26.5,N/A,,Overcast,260,2013-01-04 13:53:00
9:53 AM,28.9,19.9,69,30.27,10.0,West,17.3,26.5,N/A,,Overcast,260,2013-01-04 14:53:00
10:53 AM,28.9,18.0,64,30.28,10.0,West,19.6,29.9,N/A,,Overcast,260,2013-01-04 15:53:00
11:53 AM,28.9,17.1,61,30.25,10.0,WSW,21.9,29.9,N/A,,Mostly Cloudy,250,2013-01-04 16:53:00
12:41 PM,30.2,17.6,60,30.17,10.0,WSW,19.6,32.2,N/A,,Scattered Clouds,240,2013-01-04 17:41:00
12:53 PM,30.0,17.1,59,30.22,10.0,WSW,19.6,27.6,N/A,,Partly Cloudy,240,2013-01-04 17:53:00
1:53 PM,30.0,17.1,59,30.20,10.0,WSW,19.6,32.2,N/A,,Clear,250,2013-01-04 18:53:00
2:53 PM,32.0,17.1,54,30.21,10.0,WSW,23.0,35.7,N/A,,Clear,250,2013-01-04 19:53:00
3:53 PM,32.0,17.1,54,30.21,10.0,West,15.0,28.8,N/A,,Clear,260,2013-01-04 20:53:00
4:53 PM,32.0,17.1,54,30.21,10.0,WSW,16.1,24.2,N/A,,Clear,250,2013-01-04 21:53:00
5:53 PM,30.0,17.1,59,30.23,10.0,West,13.8,23.0,N/A,,Clear,260,2013-01-04 22:53:00
6:53 PM,30.0,18.0,61,30.24,10.0,West,13.8,27.6,N/A,,Clear,260,2013-01-04 23:53:00
7:53 PM,30.0,18.0,61,30.25,10.0,West,11.5,21.9,N/A,,Clear,260,2013-01-05 00:53:00
8:53 PM,28.9,18.0,64,30.27,10.0,West,16.1,25.3,N/A,,Clear,260,2013-01-05 01:53:00
9:53 PM,28.0,16.0,61,30.27,10.0,WSW,11.5,25.3,N/A,,Clear,250,2013-01-05 02:53:00
10:53 PM,27.0,16.0,63,30.30,10.0,WSW,9.2,19.6,N/A,,Clear,250,2013-01-05 03:53:00
11:53 PM,27.0,16.0,63,30.30,10.0,WSW,10.4,19.6,N/A,,Clear,250,2013-01-05 04:53:00